ECMPU LEMH-LIEE

Flight info

Callsign ECMPU
Flight time N/A
Altitude 19000
Route ML01 DCT ORFEO DCT EDINO DCT ESUPO
Aircraft B58T/L-SDFGRY/C

Departure

Time N/A
Airport Menorca Airport (LEMH)

Arrival

Time 2026-04-28 14:46
Airport Cagliari Elmas Airport (LIEE)
Time Latitude Longitude Altitude Speed Heading
2026-04-28 14:38 39.37507 9.14948 16437 ft 244 kts 181°
2026-04-28 14:38 39.35907 9.14387 15939 ft 239 kts 212°
2026-04-28 14:39 39.34773 9.12868 15438 ft 236 kts 241°
2026-04-28 14:39 39.34251 9.10881 14938 ft 234 kts 262°
2026-04-28 14:39 39.34350 9.08802 14435 ft 233 kts 285°
2026-04-28 14:39 39.35120 9.06979 13933 ft 234 kts 310°
2026-04-28 14:40 39.36476 9.05849 13432 ft 236 kts 340°
2026-04-28 14:40 39.37566 9.05578 13098 ft 237 kts 352°
2026-04-28 14:40 39.39739 9.05490 12434 ft 234 kts 353°
2026-04-28 14:40 39.41258 9.04814 11696 ft 234 kts 323°
2026-04-28 14:41 39.42279 9.03205 10951 ft 235 kts 292°
2026-04-28 14:41 39.42503 9.01144 10203 ft 235 kts 261°
2026-04-28 14:41 39.41871 8.99214 9450 ft 235 kts 232°
2026-04-28 14:41 39.40793 8.97618 8703 ft 236 kts 226°
2026-04-28 14:42 39.39678 8.96071 7951 ft 235 kts 226°
2026-04-28 14:42 39.38575 8.94499 7199 ft 238 kts 226°
2026-04-28 14:42 39.37237 8.93283 6439 ft 237 kts 199°
2026-04-28 14:42 39.35696 8.93132 5683 ft 212 kts 167°
2026-04-28 14:43 39.34480 8.94023 4935 ft 198 kts 135°
2026-04-28 14:43 39.33628 8.95365 4184 ft 189 kts 131°
2026-04-28 14:43 39.32751 8.96601 3436 ft 184 kts 136°
2026-04-28 14:43 39.31822 8.97716 2688 ft 181 kts 139°
2026-04-28 14:44 39.30887 8.98781 1943 ft 178 kts 139°
2026-04-28 14:44 39.29970 8.99833 1280 ft 172 kts 139°
2026-04-28 14:44 39.29115 9.00826 850 ft 157 kts 139°
2026-04-28 14:44 39.28360 9.01704 637 ft 137 kts 141°
2026-04-28 14:45 39.27700 9.02477 467 ft 121 kts 142°
2026-04-28 14:45 39.27098 9.03183 302 ft 112 kts 140°
2026-04-28 14:45 39.26522 9.03836 168 ft 110 kts 143°
2026-04-28 14:45 39.25958 9.04495 16 ft 102 kts 141°
2026-04-28 14:46 39.25506 9.05014 10 ft 73 kts 138°
2026-04-28 14:46 39.25299 9.05265 8 ft 13 kts 110°
2026-04-28 14:46 39.25342 9.05364 9 ft 15 kts 49°
2026-04-28 14:46 39.25353 9.05466 9 ft 15 kts 139°
2026-04-28 14:47 39.25253 9.05581 9 ft 22 kts 138°
2026-04-28 14:47 39.25133 9.05721 10 ft 19 kts 137°
2026-04-28 14:47 39.25152 9.05841 9 ft 17 kts 65°
2026-04-28 14:47 39.25088 9.05966 9 ft 20 kts 132°
2026-04-28 14:48 39.24990 9.06101 9 ft 18 kts 139°
2026-04-28 14:48 39.24924 9.06066 9 ft 4 kts 229°
2026-04-28 14:48 39.24923 9.06065 9 ft 0 kts 229°